Year,Month,Day,Hour,Minute,Value (Times are PST for temperature in C)
2010,03,08,00,00,1.30
2010,03,08,00,01,1.30
2010,03,08,00,02,1.30
2010,03,08,00,03,1.30
2010,03,08,00,04,1.30
2010,03,08,00,05,1.30
2010,03,08,00,06,1.30
2010,03,08,00,07,1.30
2010,03,08,00,08,1.30
2010,03,08,00,09,1.30
2010,03,08,00,10,1.30
2010,03,08,00,11,1.20
2010,03,08,00,12,1.20
2010,03,08,00,13,1.20
2010,03,08,00,14,1.10
2010,03,08,00,15,1.00
2010,03,08,00,16,1.00
2010,03,08,00,17,0.90
2010,03,08,00,18,0.90
2010,03,08,00,19,0.80
2010,03,08,00,20,0.80
2010,03,08,00,21,0.80
2010,03,08,00,22,0.80
2010,03,08,00,23,0.70
2010,03,08,00,24,0.70
2010,03,08,00,25,0.70
2010,03,08,00,26,0.70
2010,03,08,00,27,0.70
2010,03,08,00,28,0.70
2010,03,08,00,29,0.70
2010,03,08,00,30,0.70
2010,03,08,00,31,0.70
2010,03,08,00,32,0.70
2010,03,08,00,33,0.70
2010,03,08,00,34,0.70
2010,03,08,00,35,0.70
2010,03,08,00,36,0.60
2010,03,08,00,37,0.60
2010,03,08,00,38,0.60
2010,03,08,00,39,0.60
2010,03,08,00,40,0.60
2010,03,08,00,41,0.60
2010,03,08,00,42,0.60
2010,03,08,00,43,0.60
2010,03,08,00,44,0.60
2010,03,08,00,45,0.50
2010,03,08,00,46,0.50
2010,03,08,00,47,0.50
2010,03,08,00,48,0.50
2010,03,08,00,49,0.40
2010,03,08,00,50,0.40
2010,03,08,00,51,0.40
2010,03,08,00,52,0.40
2010,03,08,00,53,0.30
2010,03,08,00,54,0.30
2010,03,08,00,55,0.30
2010,03,08,00,56,0.20
2010,03,08,00,57,0.20
2010,03,08,00,58,0.20
2010,03,08,00,59,0.20
2010,03,08,01,00,0.10
2010,03,08,01,01,0.10
2010,03,08,01,02,0.10
2010,03,08,01,03,0.10
2010,03,08,01,04,0.10
2010,03,08,01,05,0.10
2010,03,08,01,06,0.10
2010,03,08,01,07,0.10
2010,03,08,01,08,0.10
2010,03,08,01,09,0.00
2010,03,08,01,10,0.00
2010,03,08,01,11,0.00
2010,03,08,01,12,-0.10
2010,03,08,01,13,-0.10
2010,03,08,01,14,-0.10
2010,03,08,01,15,-0.10
2010,03,08,01,16,-0.10
2010,03,08,01,17,-0.10
2010,03,08,01,18,-0.20
2010,03,08,01,19,-0.20
2010,03,08,01,20,-0.20
2010,03,08,01,21,-0.20
2010,03,08,01,22,-0.20
2010,03,08,01,23,-0.30
2010,03,08,01,24,-0.30
2010,03,08,01,25,-0.30
2010,03,08,01,26,-0.30
2010,03,08,01,27,-0.20
2010,03,08,01,28,-0.20
2010,03,08,01,29,-0.20
2010,03,08,01,30,-0.20
2010,03,08,01,31,-0.20
2010,03,08,01,32,-0.20
2010,03,08,01,33,-0.20
2010,03,08,01,34,-0.20
2010,03,08,01,35,-0.20
2010,03,08,01,36,-0.20
2010,03,08,01,37,-0.20
2010,03,08,01,38,-0.10
2010,03,08,01,39,0.00
2010,03,08,01,40,0.30
2010,03,08,01,41,0.50
2010,03,08,01,42,0.70
2010,03,08,01,43,0.90
2010,03,08,01,44,1.00
2010,03,08,01,45,1.20
2010,03,08,01,46,1.30
2010,03,08,01,47,1.30
2010,03,08,01,48,1.30
2010,03,08,01,49,1.30
2010,03,08,01,50,1.30
2010,03,08,01,51,1.30
2010,03,08,01,52,1.30
2010,03,08,01,53,1.30
2010,03,08,01,54,1.30
2010,03,08,01,55,1.30
2010,03,08,01,56,1.30
2010,03,08,01,57,1.30
2010,03,08,01,58,1.20
2010,03,08,01,59,1.20
2010,03,08,02,00,1.20
2010,03,08,02,01,1.20
2010,03,08,02,02,1.10
2010,03,08,02,03,1.10
2010,03,08,02,04,1.10
2010,03,08,02,05,1.10
2010,03,08,02,06,1.10
2010,03,08,02,07,1.10
2010,03,08,02,08,1.00
2010,03,08,02,09,0.90
2010,03,08,02,10,0.90
2010,03,08,02,11,0.80
2010,03,08,02,12,0.70
2010,03,08,02,13,0.70
2010,03,08,02,14,0.60
2010,03,08,02,15,0.60
2010,03,08,02,16,0.50
2010,03,08,02,17,0.50
2010,03,08,02,18,0.40
2010,03,08,02,19,0.40
2010,03,08,02,20,0.40
2010,03,08,02,21,0.30
2010,03,08,02,22,0.30
2010,03,08,02,23,0.30
2010,03,08,02,24,0.20
2010,03,08,02,25,0.20
2010,03,08,02,26,0.20
2010,03,08,02,27,0.20
2010,03,08,02,28,0.20
2010,03,08,02,29,0.10
2010,03,08,02,30,0.10
2010,03,08,02,31,0.10
2010,03,08,02,32,0.10
2010,03,08,02,33,0.00
2010,03,08,02,34,0.00
2010,03,08,02,35,0.00
2010,03,08,02,36,0.00
2010,03,08,02,37,-0.10
2010,03,08,02,38,-0.10
2010,03,08,02,39,-0.10
2010,03,08,02,40,-0.10
2010,03,08,02,41,-0.10
2010,03,08,02,42,-0.10
2010,03,08,02,43,-0.10
2010,03,08,02,44,-0.10
2010,03,08,02,45,-0.10
2010,03,08,02,46,-0.20
2010,03,08,02,47,-0.20
2010,03,08,02,48,-0.20
2010,03,08,02,49,-0.20
2010,03,08,02,50,-0.30
2010,03,08,02,51,-0.30
2010,03,08,02,52,-0.30
2010,03,08,02,53,-0.30
2010,03,08,02,54,-0.40
2010,03,08,02,55,-0.40
2010,03,08,02,56,-0.50
2010,03,08,02,57,-0.50
2010,03,08,02,58,-0.60
2010,03,08,02,59,-0.60
2010,03,08,03,00,-0.60
2010,03,08,03,01,-0.70
2010,03,08,03,02,-0.70
2010,03,08,03,03,-0.70
2010,03,08,03,04,-0.80
2010,03,08,03,05,-0.80
2010,03,08,03,06,-0.90
2010,03,08,03,07,-0.90
2010,03,08,03,08,-0.90
2010,03,08,03,09,-1.00
2010,03,08,03,10,-1.00
2010,03,08,03,11,-1.10
2010,03,08,03,12,-1.10
2010,03,08,03,13,-1.10
2010,03,08,03,14,-1.20
2010,03,08,03,15,-1.20
2010,03,08,03,16,-1.20
2010,03,08,03,17,-1.20
2010,03,08,03,18,-1.30
2010,03,08,03,19,-1.30
2010,03,08,03,20,-1.30
2010,03,08,03,21,-1.40
2010,03,08,03,22,-1.40
2010,03,08,03,23,-1.40
2010,03,08,03,24,-1.50
2010,03,08,03,25,-1.50
2010,03,08,03,26,-1.50
2010,03,08,03,27,-1.50
2010,03,08,03,28,-1.50
2010,03,08,03,29,-1.50
2010,03,08,03,30,-1.50
2010,03,08,03,31,-1.50
2010,03,08,03,32,-1.50
2010,03,08,03,33,-1.60
2010,03,08,03,34,-1.60
2010,03,08,03,35,-1.60
2010,03,08,03,36,-1.60
2010,03,08,03,37,-1.60
2010,03,08,03,38,-1.60
2010,03,08,03,39,-1.60
2010,03,08,03,40,-1.60
2010,03,08,03,41,-1.60
2010,03,08,03,42,-1.60
2010,03,08,03,43,-1.60
2010,03,08,03,44,-1.60
2010,03,08,03,45,-1.60
2010,03,08,03,46,-1.60
2010,03,08,03,47,-1.60
2010,03,08,03,48,-1.70
2010,03,08,03,49,-1.70
2010,03,08,03,50,-1.70
2010,03,08,03,51,-1.70
2010,03,08,03,52,-1.70
2010,03,08,03,53,-1.70
2010,03,08,03,54,-1.70
2010,03,08,03,55,-1.70
2010,03,08,03,56,-1.70
2010,03,08,03,57,-1.70
2010,03,08,03,58,-1.70
2010,03,08,03,59,-1.70
2010,03,08,04,00,-1.70
2010,03,08,04,01,-1.70
2010,03,08,04,02,-1.70
2010,03,08,04,03,-1.70
2010,03,08,04,04,-1.70
2010,03,08,04,05,-1.70
2010,03,08,04,06,-1.80
2010,03,08,04,07,-1.80
2010,03,08,04,08,-1.80
2010,03,08,04,09,-1.80
2010,03,08,04,10,-1.80
2010,03,08,04,11,-1.80
2010,03,08,04,12,-1.80
2010,03,08,04,13,-1.90
2010,03,08,04,14,-1.90
2010,03,08,04,15,-1.90
2010,03,08,04,16,-1.90
2010,03,08,04,17,-1.90
2010,03,08,04,18,-2.00
2010,03,08,04,19,-2.00
2010,03,08,04,20,-2.00
2010,03,08,04,21,-2.00
2010,03,08,04,22,-2.00
2010,03,08,04,23,-2.00
2010,03,08,04,24,-2.00
2010,03,08,04,25,-2.00
2010,03,08,04,26,-2.00
2010,03,08,04,27,-2.00
2010,03,08,04,28,-2.00
2010,03,08,04,29,-2.00
2010,03,08,04,30,-2.00
2010,03,08,04,31,-1.90
2010,03,08,04,32,-1.90
2010,03,08,04,33,-1.90
2010,03,08,04,34,-1.90
2010,03,08,04,35,-1.90
2010,03,08,04,36,-1.90
2010,03,08,04,37,-1.90
2010,03,08,04,38,-1.90
2010,03,08,04,39,-1.90
2010,03,08,04,40,-1.90
2010,03,08,04,41,-2.00
2010,03,08,04,42,-2.00
2010,03,08,04,43,-2.00
2010,03,08,04,44,-2.00
2010,03,08,04,45,-2.00
2010,03,08,04,46,-2.10
2010,03,08,04,47,-2.10
2010,03,08,04,48,-2.10
2010,03,08,04,49,-2.10
2010,03,08,04,50,-2.10
2010,03,08,04,51,-2.10
2010,03,08,04,52,-2.00
2010,03,08,04,53,-2.00
2010,03,08,04,54,-2.00
2010,03,08,04,55,-1.90
2010,03,08,04,56,-1.90
2010,03,08,04,57,-1.90
2010,03,08,04,58,-1.90
2010,03,08,04,59,-1.90
2010,03,08,05,00,-1.90
2010,03,08,05,01,-1.90
2010,03,08,05,02,-1.90
2010,03,08,05,03,-1.90
2010,03,08,05,04,-1.90
2010,03,08,05,05,-1.90
2010,03,08,05,06,-1.90
2010,03,08,05,07,-1.90
2010,03,08,05,08,-1.90
2010,03,08,05,09,-1.90
2010,03,08,05,10,-1.80
2010,03,08,05,11,-1.80
2010,03,08,05,12,-1.80
2010,03,08,05,13,-1.80
2010,03,08,05,14,-1.80
2010,03,08,05,15,-1.80
2010,03,08,05,16,-1.80
2010,03,08,05,17,-1.80
2010,03,08,05,18,-1.80
2010,03,08,05,19,-1.80
2010,03,08,05,20,-1.80
2010,03,08,05,21,-1.80
2010,03,08,05,22,-1.70
2010,03,08,05,23,-1.70
2010,03,08,05,24,-1.70
2010,03,08,05,25,-1.70
2010,03,08,05,26,-1.70
2010,03,08,05,27,-1.70
2010,03,08,05,28,-1.70
2010,03,08,05,29,-1.60
2010,03,08,05,30,-1.60
2010,03,08,05,31,-1.60
2010,03,08,05,32,-1.60
2010,03,08,05,33,-1.60
2010,03,08,05,34,-1.60
2010,03,08,05,35,-1.60
2010,03,08,05,36,-1.60
2010,03,08,05,37,-1.60
2010,03,08,05,38,-1.60
2010,03,08,05,39,-1.60
2010,03,08,05,40,-1.60
2010,03,08,05,41,-1.60
2010,03,08,05,42,-1.50
2010,03,08,05,43,-1.50
2010,03,08,05,44,-1.50
2010,03,08,05,45,-1.50
2010,03,08,05,46,-1.50
2010,03,08,05,47,-1.50
2010,03,08,05,48,-1.40
2010,03,08,05,49,-1.40
2010,03,08,05,50,-1.40
2010,03,08,05,51,-1.40
2010,03,08,05,52,-1.40
2010,03,08,05,53,-1.40
2010,03,08,05,54,-1.40
2010,03,08,05,55,-1.50
2010,03,08,05,56,-1.50
2010,03,08,05,57,-1.50
2010,03,08,05,58,-1.50
2010,03,08,05,59,-1.50
2010,03,08,06,00,-1.50
2010,03,08,06,01,-1.50
2010,03,08,06,02,-1.50
2010,03,08,06,03,-1.50
2010,03,08,06,04,-1.50
2010,03,08,06,05,-1.50
2010,03,08,06,06,-1.50
2010,03,08,06,07,-1.50
2010,03,08,06,08,-1.50
2010,03,08,06,09,-1.50
2010,03,08,06,10,-1.40
2010,03,08,06,11,-1.40
2010,03,08,06,12,-1.40
2010,03,08,06,13,-1.40
2010,03,08,06,14,-1.40
2010,03,08,06,15,-1.40
2010,03,08,06,16,-1.40
2010,03,08,06,17,-1.40
2010,03,08,06,18,-1.40
2010,03,08,06,19,-1.40
2010,03,08,06,20,-1.40
2010,03,08,06,21,-1.30
2010,03,08,06,22,-1.30
2010,03,08,06,23,-1.30
2010,03,08,06,24,-1.30
2010,03,08,06,25,-1.30
2010,03,08,06,26,-1.30
2010,03,08,06,27,-1.30
2010,03,08,06,28,-1.30
2010,03,08,06,29,-1.30
2010,03,08,06,30,-1.30
2010,03,08,06,31,-1.30
2010,03,08,06,32,-1.30
2010,03,08,06,33,-1.30
2010,03,08,06,34,-1.30
2010,03,08,06,35,-1.30
2010,03,08,06,36,-1.20
2010,03,08,06,37,-1.20
2010,03,08,06,38,-1.20
2010,03,08,06,39,-1.20
2010,03,08,06,40,-1.20
2010,03,08,06,41,-1.20
2010,03,08,06,42,-1.20
2010,03,08,06,43,-1.20
2010,03,08,06,44,-1.20
2010,03,08,06,45,-1.30
2010,03,08,06,46,-1.30
2010,03,08,06,47,-1.30
2010,03,08,06,48,-1.30
2010,03,08,06,49,-1.30
2010,03,08,06,50,-1.30
2010,03,08,06,51,-1.20
2010,03,08,06,52,-1.30
2010,03,08,06,53,-1.30
2010,03,08,06,54,-1.20
2010,03,08,06,55,-1.20
2010,03,08,06,56,-1.10
2010,03,08,06,57,-1.10
2010,03,08,06,58,-1.10
2010,03,08,06,59,-1.10
2010,03,08,07,00,-1.00
2010,03,08,07,01,-1.00
2010,03,08,07,02,-1.00
2010,03,08,07,03,-1.10
2010,03,08,07,04,-1.10
2010,03,08,07,05,-1.10
2010,03,08,07,06,-1.10
2010,03,08,07,07,-1.00
2010,03,08,07,08,-1.00
2010,03,08,07,09,-1.00
2010,03,08,07,10,-1.00
2010,03,08,07,11,-1.00
2010,03,08,07,12,-1.10
2010,03,08,07,13,-1.10
2010,03,08,07,14,-1.10
2010,03,08,07,15,-1.10
2010,03,08,07,16,-1.10
2010,03,08,07,17,-1.10
2010,03,08,07,18,-1.10
2010,03,08,07,19,-1.10
2010,03,08,07,20,-1.10
2010,03,08,07,21,-1.10
2010,03,08,07,22,-1.00
2010,03,08,07,23,-1.00
2010,03,08,07,24,-1.00
2010,03,08,07,25,-1.00
2010,03,08,07,26,-1.00
2010,03,08,07,27,-1.10
2010,03,08,07,28,-1.10
2010,03,08,07,29,-1.10
2010,03,08,07,30,-1.10
2010,03,08,07,31,-1.10
2010,03,08,07,32,-1.10
2010,03,08,07,33,-1.10
2010,03,08,07,34,-1.10
2010,03,08,07,35,-1.10
2010,03,08,07,36,-1.10
2010,03,08,07,37,-1.10
2010,03,08,07,38,-1.10
2010,03,08,07,39,-1.10
2010,03,08,07,40,-1.10
2010,03,08,07,41,-1.10
2010,03,08,07,42,-1.10
2010,03,08,07,43,-1.10
2010,03,08,07,44,-1.10
2010,03,08,07,45,-1.10
2010,03,08,07,46,-1.10
2010,03,08,07,47,-1.00
2010,03,08,07,48,-1.00
2010,03,08,07,49,-1.00
2010,03,08,07,50,-0.90
2010,03,08,07,51,-0.90
2010,03,08,07,52,-0.80
2010,03,08,07,53,-0.80
2010,03,08,07,54,-0.80
2010,03,08,07,55,-0.70
2010,03,08,07,56,-0.70
2010,03,08,07,57,-0.70
2010,03,08,07,58,-0.60
2010,03,08,07,59,-0.60
2010,03,08,08,00,-0.60
2010,03,08,08,01,-0.50
2010,03,08,08,02,-0.50
2010,03,08,08,03,-0.40
2010,03,08,08,04,-0.30
2010,03,08,08,05,-0.30
2010,03,08,08,06,-0.20
2010,03,08,08,07,-0.10
2010,03,08,08,08,-0.10
2010,03,08,08,09,-0.10
2010,03,08,08,10,0.00
2010,03,08,08,11,0.00
2010,03,08,08,12,0.10
2010,03,08,08,13,0.10
2010,03,08,08,14,0.10
2010,03,08,08,15,0.10
2010,03,08,08,16,0.20
2010,03,08,08,17,0.20
2010,03,08,08,18,0.20
2010,03,08,08,19,0.20
2010,03,08,08,20,0.30
2010,03,08,08,21,0.30
2010,03,08,08,22,0.30
2010,03,08,08,23,0.40
2010,03,08,08,24,0.50
2010,03,08,08,25,0.50
2010,03,08,08,26,0.60
2010,03,08,08,27,0.60
2010,03,08,08,28,0.70
2010,03,08,08,29,0.70
2010,03,08,08,30,0.80
2010,03,08,08,31,0.80
2010,03,08,08,32,0.90
2010,03,08,08,33,1.00
2010,03,08,08,34,1.00
2010,03,08,08,35,1.10
2010,03,08,08,36,1.20
2010,03,08,08,37,1.20
2010,03,08,08,38,1.30
2010,03,08,08,39,1.30
2010,03,08,08,40,1.30
2010,03,08,08,41,1.40
2010,03,08,08,42,1.50
2010,03,08,08,43,1.60
2010,03,08,08,44,1.60
2010,03,08,08,45,1.70
2010,03,08,08,46,1.80
2010,03,08,08,47,1.80
2010,03,08,08,48,1.90
2010,03,08,08,49,1.90
2010,03,08,08,50,1.90
2010,03,08,08,51,2.00
2010,03,08,08,52,2.10
2010,03,08,08,53,2.10
2010,03,08,08,54,2.20
2010,03,08,08,55,2.20
2010,03,08,08,56,2.30
2010,03,08,08,57,2.30
2010,03,08,08,58,2.40
2010,03,08,08,59,2.40
2010,03,08,09,00,2.50
2010,03,08,09,01,2.50
2010,03,08,09,02,2.50
2010,03,08,09,03,2.50
2010,03,08,09,04,2.50
2010,03,08,09,05,2.50
2010,03,08,09,06,2.60
2010,03,08,09,07,2.60
2010,03,08,09,08,2.60
2010,03,08,09,09,2.60
2010,03,08,09,10,2.60
2010,03,08,09,11,2.60
2010,03,08,09,12,2.60
2010,03,08,09,13,2.60
2010,03,08,09,14,2.70
2010,03,08,09,15,2.70
2010,03,08,09,16,2.70
2010,03,08,09,17,2.70
2010,03,08,09,18,2.70
2010,03,08,09,19,2.70
2010,03,08,09,20,2.80
2010,03,08,09,21,2.80
2010,03,08,09,22,2.90
2010,03,08,09,23,2.90
2010,03,08,09,24,3.00
2010,03,08,09,25,3.00
2010,03,08,09,26,3.10
2010,03,08,09,27,3.10
2010,03,08,09,28,3.20
2010,03,08,09,29,3.20
2010,03,08,09,30,3.20
2010,03,08,09,31,3.20
2010,03,08,09,32,3.20
2010,03,08,09,33,3.30
2010,03,08,09,34,3.30
2010,03,08,09,35,3.30
2010,03,08,09,36,3.30
2010,03,08,09,37,3.40
2010,03,08,09,38,3.40
2010,03,08,09,39,3.40
2010,03,08,09,40,3.40
2010,03,08,09,41,3.40
2010,03,08,09,42,3.50
2010,03,08,09,43,3.50
2010,03,08,09,44,3.50
2010,03,08,09,45,3.50
2010,03,08,09,46,3.60
2010,03,08,09,47,3.60
2010,03,08,09,48,3.60
2010,03,08,09,49,3.70
2010,03,08,09,50,3.70
2010,03,08,09,51,3.80
2010,03,08,09,52,3.80
2010,03,08,09,53,3.90
2010,03,08,09,54,3.90
2010,03,08,09,55,3.90
2010,03,08,09,56,3.90
2010,03,08,09,57,3.90
2010,03,08,09,58,3.90
2010,03,08,09,59,4.00
2010,03,08,10,00,4.00
2010,03,08,10,01,4.00
2010,03,08,10,02,4.00
2010,03,08,10,03,4.00
2010,03,08,10,04,4.00
2010,03,08,10,05,4.00
2010,03,08,10,06,4.00
2010,03,08,10,07,4.00
2010,03,08,10,08,4.00
2010,03,08,10,09,4.00
2010,03,08,10,10,4.00
2010,03,08,10,11,3.90
2010,03,08,10,12,3.90
2010,03,08,10,13,3.90
2010,03,08,10,14,3.90
2010,03,08,10,15,3.90
2010,03,08,10,16,3.90
2010,03,08,10,17,3.90
2010,03,08,10,18,3.90
2010,03,08,10,19,3.90
2010,03,08,10,20,3.90
2010,03,08,10,21,3.90
2010,03,08,10,22,3.80
2010,03,08,10,23,3.80
2010,03,08,10,24,3.80
2010,03,08,10,25,3.80
2010,03,08,10,26,3.70
2010,03,08,10,27,3.70
2010,03,08,10,28,3.70
2010,03,08,10,29,3.80
2010,03,08,10,30,3.80
2010,03,08,10,31,3.80
2010,03,08,10,32,3.80
2010,03,08,10,33,3.70
2010,03,08,10,34,3.60
2010,03,08,10,35,3.50
2010,03,08,10,36,3.40
2010,03,08,10,37,3.30
2010,03,08,10,38,3.20
2010,03,08,10,39,3.20
2010,03,08,10,40,3.20
2010,03,08,10,41,3.20
2010,03,08,10,42,3.20
2010,03,08,10,43,3.20
2010,03,08,10,44,3.10
2010,03,08,10,45,3.10
2010,03,08,10,46,3.10
2010,03,08,10,47,3.10
2010,03,08,10,48,3.10
2010,03,08,10,49,3.10
2010,03,08,10,50,3.20
2010,03,08,10,51,3.20
2010,03,08,10,52,3.20
2010,03,08,10,53,3.20
2010,03,08,10,54,3.20
2010,03,08,10,55,3.20
2010,03,08,10,56,3.20
2010,03,08,10,57,3.20
2010,03,08,10,58,3.20
2010,03,08,10,59,3.20
2010,03,08,11,00,3.20
2010,03,08,11,01,3.20
2010,03,08,11,02,3.20
2010,03,08,11,03,3.10
2010,03,08,11,04,3.10
2010,03,08,11,05,3.10
2010,03,08,11,08,3.30
2010,03,08,11,09,3.30
2010,03,08,11,10,3.30
2010,03,08,11,11,3.40
2010,03,08,11,12,3.40
2010,03,08,11,13,3.40
2010,03,08,11,14,3.50
2010,03,08,11,15,3.50
2010,03,08,11,16,3.50
2010,03,08,11,17,3.50
2010,03,08,11,18,3.50
2010,03,08,11,19,3.50
2010,03,08,11,20,3.50
2010,03,08,11,21,3.50
2010,03,08,11,22,3.50
2010,03,08,11,23,3.60
2010,03,08,11,24,3.70
2010,03,08,11,25,3.70
2010,03,08,11,26,3.80
2010,03,08,11,27,3.80
2010,03,08,11,28,3.80
2010,03,08,11,29,3.80
2010,03,08,11,30,3.90
2010,03,08,11,31,3.90
2010,03,08,11,32,4.00
2010,03,08,11,33,4.10
2010,03,08,11,34,4.20
2010,03,08,11,35,4.20
2010,03,08,11,36,4.20
2010,03,08,11,37,4.30
2010,03,08,11,38,4.30
2010,03,08,11,39,4.20
2010,03,08,11,40,4.20
2010,03,08,11,41,4.20
2010,03,08,11,42,4.30
2010,03,08,11,43,4.30
2010,03,08,11,44,4.30
2010,03,08,11,45,4.30
2010,03,08,11,46,4.40
2010,03,08,11,47,4.40
2010,03,08,11,48,4.40
2010,03,08,11,49,4.40
2010,03,08,11,50,4.40
2010,03,08,11,51,4.40
2010,03,08,11,52,4.40
2010,03,08,11,53,4.40
2010,03,08,11,54,4.40
2010,03,08,11,55,4.40
2010,03,08,11,56,4.30
2010,03,08,11,57,4.30
2010,03,08,11,58,4.20
2010,03,08,11,59,4.20
2010,03,08,12,00,4.10
2010,03,08,12,01,4.10
2010,03,08,12,02,4.10
2010,03,08,12,03,4.10
2010,03,08,12,04,4.10
2010,03,08,12,05,4.10
2010,03,08,12,06,4.10
2010,03,08,12,07,4.10
2010,03,08,12,08,4.10
2010,03,08,12,09,4.00
2010,03,08,12,10,3.90
2010,03,08,12,11,3.80
2010,03,08,12,12,3.60
2010,03,08,12,13,3.50
2010,03,08,12,14,3.40
2010,03,08,12,15,3.30
2010,03,08,12,16,3.20
2010,03,08,12,17,3.10
2010,03,08,12,18,3.00
2010,03,08,12,19,2.90
2010,03,08,12,20,2.90
2010,03,08,12,21,2.80
2010,03,08,12,22,2.80
2010,03,08,12,23,2.80
2010,03,08,12,24,2.80
2010,03,08,12,25,2.80
2010,03,08,12,26,2.70
2010,03,08,12,27,2.70
2010,03,08,12,28,2.70
2010,03,08,12,29,2.70
2010,03,08,12,30,2.70
2010,03,08,12,31,2.60
2010,03,08,12,32,2.60
2010,03,08,12,33,2.60
2010,03,08,12,34,2.50
2010,03,08,12,35,2.50
2010,03,08,12,36,2.40
2010,03,08,12,37,2.40
2010,03,08,12,38,2.30
2010,03,08,12,39,2.30
2010,03,08,12,40,2.20
2010,03,08,12,41,2.10
2010,03,08,12,42,2.10
2010,03,08,12,43,2.00
2010,03,08,12,44,1.90
2010,03,08,12,45,1.90
2010,03,08,12,46,1.90
2010,03,08,12,47,1.80
2010,03,08,12,48,1.80
2010,03,08,12,49,1.80
2010,03,08,12,50,1.70
2010,03,08,12,51,1.70
2010,03,08,12,52,1.70
2010,03,08,12,53,1.70
2010,03,08,12,54,1.70
2010,03,08,12,55,1.70
2010,03,08,12,56,1.80
2010,03,08,12,57,1.80
2010,03,08,12,58,1.90
2010,03,08,12,59,1.90
2010,03,08,13,00,2.00
2010,03,08,13,01,2.10
2010,03,08,13,02,2.20
2010,03,08,13,03,2.20
2010,03,08,13,04,2.30
2010,03,08,13,05,2.30
2010,03,08,13,06,2.30
2010,03,08,13,07,2.40
2010,03,08,13,08,2.40
2010,03,08,13,09,2.40
2010,03,08,13,10,2.50
2010,03,08,13,11,2.50
2010,03,08,13,12,2.60
2010,03,08,13,13,2.60
2010,03,08,13,14,2.60
2010,03,08,13,15,2.70
2010,03,08,13,16,2.70
2010,03,08,13,17,2.70
2010,03,08,13,18,2.70
2010,03,08,13,19,2.70
2010,03,08,13,20,2.70
2010,03,08,13,21,2.70
2010,03,08,13,22,2.60
2010,03,08,13,23,2.60
2010,03,08,13,24,2.50
2010,03,08,13,25,2.40
2010,03,08,13,26,2.30
2010,03,08,13,27,2.20
2010,03,08,13,28,2.20
2010,03,08,13,29,2.10
2010,03,08,13,30,2.10
2010,03,08,13,31,2.00
2010,03,08,13,32,2.00
2010,03,08,13,33,2.00
2010,03,08,13,34,2.00
2010,03,08,13,35,2.00
2010,03,08,13,36,2.00
2010,03,08,13,37,2.10
2010,03,08,13,38,2.20
2010,03,08,13,39,2.30
2010,03,08,13,40,2.50
2010,03,08,13,41,2.60
2010,03,08,13,42,2.80
2010,03,08,13,43,2.90
2010,03,08,13,44,3.00
2010,03,08,13,45,3.20
2010,03,08,13,46,3.40
2010,03,08,13,47,3.50
2010,03,08,13,48,3.60
2010,03,08,13,49,3.60
2010,03,08,13,50,3.60
2010,03,08,13,51,3.70
2010,03,08,13,52,3.70
2010,03,08,13,53,3.70
2010,03,08,13,54,3.70
2010,03,08,13,55,3.60
2010,03,08,13,56,3.60
2010,03,08,13,57,3.50
2010,03,08,13,58,3.40
2010,03,08,13,59,3.40
2010,03,08,14,00,3.40
2010,03,08,14,01,3.40
2010,03,08,14,02,3.40
2010,03,08,14,03,3.50
2010,03,08,14,04,3.60
2010,03,08,14,05,3.60
2010,03,08,14,06,3.70
2010,03,08,14,07,3.80
2010,03,08,14,08,3.90
2010,03,08,14,09,4.00
2010,03,08,14,10,4.10
2010,03,08,14,11,4.10
2010,03,08,14,12,4.10
2010,03,08,14,13,4.10
2010,03,08,14,14,4.10
2010,03,08,14,15,4.10
2010,03,08,14,16,4.10
2010,03,08,14,17,4.10
2010,03,08,14,18,4.10
2010,03,08,14,19,4.00
2010,03,08,14,20,4.00
2010,03,08,14,21,4.00
2010,03,08,14,22,4.00
2010,03,08,14,23,4.00
2010,03,08,14,24,4.00
2010,03,08,14,25,4.10
2010,03,08,14,26,4.20
2010,03,08,14,27,4.20
2010,03,08,14,28,4.30
2010,03,08,14,29,4.30
2010,03,08,14,30,4.40
2010,03,08,14,31,4.50
2010,03,08,14,32,4.60
2010,03,08,14,33,4.60
2010,03,08,14,34,4.70
2010,03,08,14,35,4.80
2010,03,08,14,36,4.90
2010,03,08,14,37,5.00
2010,03,08,14,38,5.00
2010,03,08,14,39,5.10
2010,03,08,14,40,5.10
2010,03,08,14,41,5.20
2010,03,08,14,42,5.20
2010,03,08,14,43,5.20
2010,03,08,14,44,5.20
2010,03,08,14,45,5.20
2010,03,08,14,46,5.20
2010,03,08,14,47,5.20
2010,03,08,14,48,5.20
2010,03,08,14,49,5.20
2010,03,08,14,50,5.20
2010,03,08,14,51,5.30
2010,03,08,14,52,5.30
2010,03,08,14,53,5.30
2010,03,08,14,54,5.30
2010,03,08,14,55,5.40
2010,03,08,14,56,5.40
2010,03,08,14,57,5.40
2010,03,08,14,58,5.50
2010,03,08,14,59,5.50
2010,03,08,15,00,5.60
2010,03,08,15,01,5.70
2010,03,08,15,02,5.80
2010,03,08,15,03,5.80
2010,03,08,15,04,5.80
2010,03,08,15,05,5.80
2010,03,08,15,06,5.80
2010,03,08,15,07,5.80
2010,03,08,15,08,5.80
2010,03,08,15,09,5.80
2010,03,08,15,10,5.80
2010,03,08,15,11,5.80
2010,03,08,15,12,5.80
2010,03,08,15,13,5.80
2010,03,08,15,14,5.70
2010,03,08,15,15,5.70
2010,03,08,15,16,5.70
2010,03,08,15,17,5.60
2010,03,08,15,18,5.60
2010,03,08,15,19,5.50
2010,03,08,15,20,5.50
2010,03,08,15,21,5.50
2010,03,08,15,22,5.40
2010,03,08,15,23,5.40
2010,03,08,15,24,5.40
2010,03,08,15,25,5.40
2010,03,08,15,26,5.40
2010,03,08,15,27,5.40
2010,03,08,15,28,5.40
2010,03,08,15,29,5.40
2010,03,08,15,30,5.40
2010,03,08,15,31,5.40
2010,03,08,15,32,5.40
2010,03,08,15,33,5.50
2010,03,08,15,34,5.50
2010,03,08,15,35,5.50
2010,03,08,15,36,5.50
2010,03,08,15,37,5.50
2010,03,08,15,38,5.60
2010,03,08,15,39,5.60
2010,03,08,15,40,5.60
2010,03,08,15,41,5.60
2010,03,08,15,42,5.60
2010,03,08,15,43,5.50
2010,03,08,15,44,5.50
2010,03,08,15,45,5.50
2010,03,08,15,46,5.50
2010,03,08,15,47,5.50
2010,03,08,15,48,5.40
2010,03,08,15,49,5.40
2010,03,08,15,50,5.40
2010,03,08,15,51,5.40
2010,03,08,15,52,5.40
2010,03,08,15,53,5.40
2010,03,08,15,54,5.40
2010,03,08,15,55,5.40
2010,03,08,15,56,5.40
2010,03,08,15,57,5.30
2010,03,08,15,58,5.30
2010,03,08,15,59,5.30
2010,03,08,16,00,5.30
2010,03,08,16,01,5.20
2010,03,08,16,02,5.20
2010,03,08,16,03,5.20
2010,03,08,16,04,5.20
2010,03,08,16,05,5.20
2010,03,08,16,06,5.20
2010,03,08,16,07,5.20
2010,03,08,16,08,5.20
2010,03,08,16,09,5.20
2010,03,08,16,10,5.20
2010,03,08,16,11,5.20
2010,03,08,16,12,5.20
2010,03,08,16,13,5.20
2010,03,08,16,14,5.20
2010,03,08,16,15,5.20
2010,03,08,16,16,5.20
2010,03,08,16,17,5.20
2010,03,08,16,18,5.30
2010,03,08,16,19,5.30
2010,03,08,16,20,5.30
2010,03,08,16,21,5.30
2010,03,08,16,22,5.30
2010,03,08,16,23,5.30
2010,03,08,16,24,5.40
2010,03,08,16,25,5.40
2010,03,08,16,26,5.40
2010,03,08,16,27,5.40
2010,03,08,16,28,5.40
2010,03,08,16,29,5.40
2010,03,08,16,30,5.40
2010,03,08,16,31,5.40
2010,03,08,16,32,5.40
2010,03,08,16,33,5.40
2010,03,08,16,34,5.40
2010,03,08,16,35,5.40
2010,03,08,16,36,5.40
2010,03,08,16,37,5.40
2010,03,08,16,38,5.40
2010,03,08,16,39,5.40
2010,03,08,16,40,5.40
2010,03,08,16,41,5.40
2010,03,08,16,42,5.40
2010,03,08,16,43,5.40
2010,03,08,16,44,5.40
2010,03,08,16,45,5.40
2010,03,08,16,46,5.40
2010,03,08,16,47,5.40
2010,03,08,16,48,5.40
2010,03,08,16,49,5.40
2010,03,08,16,50,5.40
2010,03,08,16,51,5.40
2010,03,08,16,52,5.30
2010,03,08,16,53,5.30
2010,03,08,16,54,5.40
2010,03,08,16,55,5.40
2010,03,08,16,56,5.40
2010,03,08,16,57,5.50
2010,03,08,16,58,5.60
2010,03,08,16,59,5.60
2010,03,08,17,00,5.70
2010,03,08,17,01,5.70
2010,03,08,17,02,5.70
2010,03,08,17,03,5.70
2010,03,08,17,04,5.70
2010,03,08,17,05,5.70
2010,03,08,17,06,5.70
2010,03,08,17,07,5.70
2010,03,08,17,08,5.70
2010,03,08,17,09,5.70
2010,03,08,17,10,5.70
2010,03,08,17,11,5.80
2010,03,08,17,12,5.80
2010,03,08,17,13,5.80
2010,03,08,17,14,5.90
2010,03,08,17,15,5.90
2010,03,08,17,16,6.00
2010,03,08,17,17,6.00
2010,03,08,17,18,6.10
2010,03,08,17,19,6.20
2010,03,08,17,20,6.20
2010,03,08,17,21,6.30
2010,03,08,17,22,6.30
2010,03,08,17,23,6.40
2010,03,08,17,24,6.50
2010,03,08,17,25,6.50
2010,03,08,17,26,6.60
2010,03,08,17,27,6.60
2010,03,08,17,28,6.60
2010,03,08,17,29,6.70
2010,03,08,17,30,6.70
2010,03,08,17,31,6.70
2010,03,08,17,32,6.70
2010,03,08,17,33,6.70
2010,03,08,17,34,6.70
2010,03,08,17,35,6.70
2010,03,08,17,36,6.70
2010,03,08,17,37,6.70
2010,03,08,17,38,6.70
2010,03,08,17,39,6.70
2010,03,08,17,40,6.70
2010,03,08,17,41,6.70
2010,03,08,17,42,6.70
2010,03,08,17,43,6.70
2010,03,08,17,44,6.70
2010,03,08,17,45,6.70
2010,03,08,17,46,6.70
2010,03,08,17,47,6.60
2010,03,08,17,48,6.50
2010,03,08,17,49,6.40
2010,03,08,17,50,6.40
2010,03,08,17,51,6.30
2010,03,08,17,52,6.20